TimeEDT,TemperatureF,Dew PointF,Humidity,Sea Level PressureIn,VisibilityMPH,Wind Direction,Wind SpeedMPH,Gust SpeedMPH,PrecipitationIn,Events,Conditions,WindDirDegrees,DateUTC
12:05 AM,30.2,28.4,93,29.96,4.0,West,5.8,-,0.00,Snow,Light Snow,280,2013-03-28 04:05:00
12:53 AM,30.9,28.9,92,30.00,5.0,WNW,8.1,-,0.00,Snow,Light Snow,290,2013-03-28 04:53:00
1:25 AM,30.2,28.4,93,29.96,6.0,WNW,5.8,-,0.00,Snow,Light Snow,290,2013-03-28 05:25:00
1:53 AM,30.9,28.0,89,30.00,10.0,WNW,5.8,-,0.00,,Overcast,300,2013-03-28 05:53:00
2:53 AM,30.9,28.0,89,29.99,10.0,NW,3.5,-,0.00,,Overcast,310,2013-03-28 06:53:00
3:10 AM,30.2,28.4,93,29.95,1.8,WNW,3.5,-,0.00,Snow,Light Snow,290,2013-03-28 07:10:00
3:21 AM,30.2,28.4,93,29.95,2.0,Calm,Calm,-,0.01,Snow,Light Snow,0,2013-03-28 07:21:00
3:28 AM,30.2,28.4,93,29.95,1.0,NW,3.5,-,0.01,Snow,Light Snow,310,2013-03-28 07:28:00
3:48 AM,30.2,28.4,93,29.95,3.0,NNW,8.1,-,0.02,Snow,Light Snow,330,2013-03-28 07:48:00
3:53 AM,30.0,28.0,92,30.00,5.0,NW,5.8,-,0.02,,Overcast,320,2013-03-28 07:53:00
4:22 AM,30.2,28.4,93,29.95,8.0,WNW,5.8,-,N/A,,Overcast,300,2013-03-28 08:22:00
4:34 AM,30.2,28.4,93,29.94,10.0,WNW,4.6,-,N/A,,Overcast,290,2013-03-28 08:34:00
4:47 AM,30.2,28.4,93,29.95,10.0,WNW,5.8,-,N/A,,Overcast,300,2013-03-28 08:47:00
4:53 AM,30.0,28.0,92,29.99,10.0,WNW,5.8,-,N/A,,Overcast,300,2013-03-28 08:53:00
5:06 AM,30.2,28.4,93,29.95,10.0,WNW,6.9,-,N/A,,Overcast,300,2013-03-28 09:06:00
5:14 AM,30.2,26.6,86,29.95,10.0,NW,5.8,-,N/A,,Overcast,310,2013-03-28 09:14:00
5:36 AM,30.2,26.6,86,29.96,10.0,NNW,6.9,-,N/A,,Overcast,330,2013-03-28 09:36:00
5:53 AM,30.0,27.0,88,30.01,10.0,NNW,5.8,-,N/A,,Overcast,330,2013-03-28 09:53:00
6:46 AM,30.2,26.6,86,29.97,2.0,NW,5.8,-,0.00,Snow,Light Snow,310,2013-03-28 10:46:00
6:53 AM,30.0,27.0,88,30.03,5.0,NW,5.8,-,0.00,Snow,Light Snow,320,2013-03-28 10:53:00
7:53 AM,30.0,27.0,88,30.04,10.0,NW,9.2,-,0.00,Snow,Light Snow,320,2013-03-28 11:53:00
8:53 AM,30.9,28.0,89,30.06,10.0,NW,6.9,-,0.00,,Overcast,320,2013-03-28 12:53:00
9:53 AM,30.9,28.0,89,30.07,10.0,NNW,8.1,-,N/A,,Overcast,330,2013-03-28 13:53:00
10:53 AM,33.1,28.9,85,30.07,10.0,NW,12.7,19.6,N/A,,Overcast,320,2013-03-28 14:53:00
11:23 AM,33.8,28.4,81,30.04,10.0,NNW,6.9,-,N/A,,Overcast,330,2013-03-28 15:23:00
11:53 AM,35.1,28.9,78,30.09,10.0,WNW,10.4,-,N/A,,Overcast,300,2013-03-28 15:53:00
12:32 PM,35.6,28.4,75,30.04,10.0,NNW,13.8,-,N/A,,Overcast,340,2013-03-28 16:32:00
12:53 PM,37.0,28.9,73,30.09,10.0,North,10.4,-,N/A,,Overcast,350,2013-03-28 16:53:00
1:53 PM,37.9,27.0,65,30.09,10.0,NW,16.1,21.9,N/A,,Overcast,320,2013-03-28 17:53:00
2:27 PM,39.2,28.4,65,30.04,10.0,NNW,12.7,19.6,N/A,,Overcast,330,2013-03-28 18:27:00
2:49 PM,37.4,26.6,65,30.04,10.0,NNW,9.2,18.4,N/A,,Overcast,330,2013-03-28 18:49:00
2:53 PM,39.0,27.0,62,30.09,10.0,NNW,9.2,18.4,N/A,,Overcast,340,2013-03-28 18:53:00
3:53 PM,39.0,26.1,60,30.08,10.0,NW,10.4,-,N/A,,Overcast,310,2013-03-28 19:53:00
4:53 PM,39.9,26.1,58,30.09,10.0,NW,8.1,-,N/A,,Overcast,310,2013-03-28 20:53:00
5:53 PM,39.0,27.0,62,30.10,10.0,NW,10.4,-,N/A,,Overcast,320,2013-03-28 21:53:00
6:22 PM,37.4,26.6,65,30.06,10.0,NW,10.4,-,N/A,,Overcast,310,2013-03-28 22:22:00
6:53 PM,37.9,26.1,62,30.12,10.0,NW,10.4,-,N/A,,Overcast,320,2013-03-28 22:53:00
7:53 PM,36.0,25.0,64,30.15,10.0,NW,8.1,18.4,N/A,,Overcast,310,2013-03-28 23:53:00
8:53 PM,35.1,25.0,67,30.17,10.0,NW,6.9,-,N/A,,Mostly Cloudy,310,2013-03-29 00:53:00
9:53 PM,35.1,26.1,70,30.18,10.0,WNW,6.9,-,N/A,,Overcast,300,2013-03-29 01:53:00
10:53 PM,35.1,26.1,70,30.18,10.0,NW,6.9,-,N/A,,Overcast,310,2013-03-29 02:53:00
11:53 PM,34.0,25.0,70,30.17,10.0,NW,8.1,-,N/A,,Overcast,310,2013-03-29 03:53:00